Weather History for KNKT - September, 2012

Change the Weather History Date:

Sunday, September 30, 2012

  Actual Average Record
Temperature  
Mean Temperature 68 °F -  
Max Temperature 73 °F 77 °F 84 °F (2011)
Min Temperature 62 °F 59 °F 48 °F (2006)
Cooling Degree Days 2    
Growing Degree Days 18 (Base 50)    
Moisture  
Dew Point 62 °F    
Average Humidity 84    
Maximum Humidity 94    
Minimum Humidity 68    
Precipitation  
Precipitation 0.00 in - - ()
Sea Level Pressure  
Sea Level Pressure 29.89 in    
Wind  
Wind Speed 4 mph ()    
Max Wind Speed 9 mph    
Max Gust Speed -    
Visibility 7.7 miles    
Events Rain    
Averages and records for this station are not official NWS values.
T = Trace of Precipitation, MM = Missing Value Source: Averaged Metar Reports

Daily Weather History Graph

Daily Weather History Graph

Search for Another Location

Airport or City:

Trip Planner

Search our weather history database for the weather conditions in past years. The results will help you decide how hot, cold, wet, or windy it might be!

Date:

Astronomy

Sep. 30, 2012 Rise Set
Actual Time 7:01 AM EDT 6:52 PM EDT
Civil Twilight 6:36 AM EDT 7:17 PM EDT
Nautical Twilight 6:07 AM EDT 7:46 PM EDT
Astronomical Twilight 5:37 AM EDT 8:16 PM EDT
Moon 6:59 PM EDT (9/30) 7:27 AM EDT (9/30)
Length of Visible Light 12h 40m
Length of Day
11h 50m
Full, 100% of the Moon is Illuminated
Sep 30
Full
Oct 8
Last Quarter
Oct 15
New
Oct 21
First Quarter
Oct 29
Full

Hourly Weather History & Observations

Time (EDT) Temp. Dew Point Humidity Pressure Visibility Wind Dir Wind Speed Gust Speed Precip Events Conditions
12:54 AM 66.9 °F 64.9 °F 93% 29.88 in 4.0 mi Calm Calm - N/A   Overcast
1:14 AM 66.2 °F 64.4 °F 94% 29.89 in 5.0 mi Calm Calm - N/A   Overcast
1:46 AM 66.2 °F 64.4 °F 94% 29.88 in 5.0 mi North 9.2 mph - N/A   Overcast
1:54 AM 66.9 °F 64.0 °F 90% 29.87 in 6.0 mi North 6.9 mph - N/A   Overcast
2:54 AM 66.0 °F 64.0 °F 93% 29.87 in 7.0 mi North 8.1 mph - N/A   Overcast
3:21 AM 64.4 °F 62.6 °F 94% 29.89 in 3.0 mi North 8.1 mph - N/A   Overcast
3:37 AM 64.4 °F 62.6 °F 94% 29.89 in 2.5 mi North 6.9 mph - 0.00 in Rain Light Rain
3:52 AM 64.4 °F 62.6 °F 94% 29.89 in 3.0 mi NNE 5.8 mph - 0.00 in   Overcast
3:54 AM 64.9 °F 63.0 °F 93% 29.88 in 3.0 mi NNE 4.6 mph - 0.00 in Rain Light Rain
4:12 AM 64.4 °F 62.6 °F 94% 29.87 in 5.0 mi NE 3.5 mph - 0.00 in   Overcast
4:25 AM 64.4 °F 62.6 °F 94% 29.88 in 5.0 mi North 6.9 mph - 0.00 in   Overcast
4:35 AM 64.4 °F 62.6 °F 94% 29.87 in 5.0 mi North 6.9 mph - 0.00 in   Overcast
4:54 AM 64.9 °F 63.0 °F 93% 29.87 in 6.0 mi North 8.1 mph - 0.00 in   Overcast
5:54 AM 64.0 °F 62.1 °F 93% 29.88 in 6.0 mi North 8.1 mph - N/A   Overcast
6:39 AM 62.6 °F 60.8 °F 94% 29.89 in 5.0 mi North 8.1 mph - N/A   Overcast
6:54 AM 63.0 °F 61.0 °F 93% 29.88 in 4.0 mi North 8.1 mph - N/A   Overcast
7:54 AM 63.0 °F 61.0 °F 93% 29.89 in 4.0 mi North 6.9 mph - N/A   Overcast
8:52 AM 64.4 °F 60.8 °F 88% 29.91 in 7.0 mi NNE 6.9 mph - N/A   Overcast
8:54 AM 64.0 °F 61.0 °F 90% 29.91 in 8.0 mi NNE 6.9 mph - N/A   Overcast
9:01 AM 64.4 °F 60.8 °F 88% 29.91 in 8.0 mi NNE 8.1 mph - N/A   Overcast
9:33 AM 64.4 °F 60.8 °F 88% 29.92 in 10.0 mi NNE 6.9 mph - N/A   Overcast
9:54 AM 66.0 °F 62.1 °F 87% 29.92 in 10.0 mi NNE 5.8 mph - N/A   Overcast
10:13 AM 66.2 °F 62.6 °F 88% 29.93 in 10.0 mi NNE 8.1 mph - N/A   Overcast
10:54 AM 66.9 °F 61.0 °F 81% 29.92 in 10.0 mi NE 5.8 mph - N/A   Overcast
11:20 AM 69.8 °F 60.8 °F 73% 29.92 in 10.0 mi NE 6.9 mph - N/A   Overcast
11:54 AM 70.0 °F 61.0 °F 73% 29.91 in 10.0 mi Variable 3.5 mph - N/A   Overcast
12:54 PM 69.1 °F 61.0 °F 75% 29.91 in 10.0 mi East 3.5 mph - N/A   Overcast
1:41 PM 71.6 °F 62.6 °F 73% 29.90 in 10.0 mi Calm Calm - N/A   Scattered Clouds
1:52 PM 71.6 °F 62.6 °F 73% 29.90 in 10.0 mi ESE 3.5 mph - N/A   Mostly Cloudy
1:54 PM 71.1 °F 62.1 °F 73% 29.89 in 10.0 mi Calm Calm - N/A   Mostly Cloudy
2:51 PM 71.6 °F 62.6 °F 73% 29.89 in 10.0 mi Variable 3.5 mph - N/A   Overcast
2:54 PM 72.0 °F 62.1 °F 71% 29.88 in 10.0 mi Calm Calm - N/A   Overcast
3:54 PM 73.0 °F 62.1 °F 68% 29.86 in 10.0 mi NW 3.5 mph - N/A   Partly Cloudy
4:54 PM 72.0 °F 62.1 °F 71% 29.86 in 10.0 mi West 5.8 mph - N/A   Mostly Cloudy
5:54 PM 71.1 °F 64.0 °F 78% 29.86 in 10.0 mi Calm Calm - N/A   Mostly Cloudy
6:47 PM 69.8 °F 62.6 °F 78% 29.88 in 10.0 mi NW 4.6 mph - N/A   Partly Cloudy
6:54 PM 70.0 °F 63.0 °F 78% 29.87 in 10.0 mi WNW 5.8 mph - N/A   Partly Cloudy
7:07 PM 69.8 °F 62.6 °F 78% 29.88 in 10.0 mi West 4.6 mph - N/A   Mostly Cloudy
7:54 PM 69.1 °F 63.0 °F 81% 29.89 in 10.0 mi NW 5.8 mph - N/A   Mostly Cloudy
8:54 PM 69.1 °F 62.1 °F 78% 29.90 in 10.0 mi NW 3.5 mph - N/A   Overcast
9:07 PM 69.8 °F 62.6 °F 78% 29.91 in 10.0 mi WNW 3.5 mph - N/A   Overcast
9:54 PM 69.1 °F 63.0 °F 81% 29.90 in 10.0 mi NW 3.5 mph - N/A   Overcast
10:19 PM 69.8 °F 62.6 °F 78% 29.91 in 10.0 mi NNW 5.8 mph - N/A   Overcast
10:54 PM 69.1 °F 63.0 °F 81% 29.91 in 10.0 mi Calm Calm - N/A   Overcast
11:54 PM 66.9 °F 64.9 °F 93% 29.91 in 7.0 mi Calm Calm - 0.00 in   Overcast